Weather reports worldwide

Advertisment
Genova/Sestri, Italy (16120): temperature & dewpoint: 12.06.2019 04:00:00 - 18.06.2019 04:00:00 (CEST)Genova/Sestri, Italy (16120): wind speed: 12.06.2019 04:00:00 - 18.06.2019 04:00:00 (CEST)Genova/Sestri, Italy (16120): wind direction: 12.06.2019 04:00:00 - 18.06.2019 04:00:00 (CEST)Genova/Sestri, Italy (16120): reduced air pressure: 12.06.2019 04:00:00 - 18.06.2019 04:00:00 (CEST)Genova/Sestri, Italy (16120): visibility: 12.06.2019 04:00:00 - 18.06.2019 04:00:00 (CEST)
Date & Time tt [°C] td [°C] ff [km/h] ff [kn] dd ppp [hPa] vv [km]
18.06.2019 04:00:00 23,0 15,0 5 3 N - 10
18.06.2019 03:00:00 23,0 16,0 5 3 N - 10
18.06.2019 02:00:00 22,2 15,5 2 1 - 1014,4 10
18.06.2019 01:00:00 24,0 16,0 5 3 N - 10
18.06.2019 00:00:00 24,0 17,0 5 3 N - 10
17.06.2019 23:00:00 23,7 16,7 5 3 NW 1014,3 10
17.06.2019 22:00:00 24,0 17,0 5 3 ENE - 10
17.06.2019 21:00:00 23,0 18,0 9 5 ESE - 10
17.06.2019 20:00:00 23,6 18,2 11 6 W 1013,6 10
17.06.2019 19:00:00 24,0 19,0 11 6 WSW - 10
17.06.2019 18:00:00 24,0 19,0 11 6 SW - 10
17.06.2019 17:00:00 24,0 19,4 11 6 WSW 1013,9 10
17.06.2019 16:00:00 24,0 19,0 9 5 SW - 10
17.06.2019 15:00:00 24,0 19,0 13 7 SW - 10
17.06.2019 14:00:00 23,6 18,4 9 5 SW 1015,7 10
17.06.2019 13:00:00 23,0 19,0 9 5 SW - 10
17.06.2019 12:00:00 23,0 18,0 13 7 SW - 10
17.06.2019 11:00:00 22,6 18,3 9 5 SW 1015,9 10
17.06.2019 10:00:00 22,0 18,0 9 5 SW - 10
17.06.2019 09:00:00 22,0 17,0 5 3 SW - 10
17.06.2019 08:00:00 20,9 15,6 5 3 NNE 1015,6 18
17.06.2019 07:00:00 19,0 15,0 8 4 NNE - 10
17.06.2019 06:00:00 18,0 15,0 9 5 NNE - 10
17.06.2019 05:00:00 18,6 14,7 8 4 NE 1015,2 10
17.06.2019 04:00:00 19,0 16,0 9 5 NNE - 10
17.06.2019 03:00:00 19,0 16,0 9 5 NNE - 10
17.06.2019 02:00:00 18,8 15,6 8 4 NNE 1015,5 10
17.06.2019 01:00:00 19,0 16,0 8 4 NNE - 10
17.06.2019 00:00:00 20,0 16,0 9 5 NNE - 10
16.06.2019 23:00:00 20,4 16,5 5 3 NNE 1015,3 10
16.06.2019 22:00:00 21,0 17,0 8 4 W - 10
16.06.2019 21:00:00 21,0 16,0 5 3 SSW - 10
16.06.2019 20:00:00 21,7 16,4 5 3 SW 1014,9 10
16.06.2019 19:00:00 22,0 17,0 8 4 SSW - 10
16.06.2019 18:00:00 23,0 17,0 9 5 SW - 10
16.06.2019 17:00:00 23,0 16,5 9 5 SSW 1015,7 10
16.06.2019 16:00:00 23,0 16,0 9 5 SSW - 10
16.06.2019 15:00:00 23,0 17,0 11 6 SW - 10
16.06.2019 14:00:00 22,9 16,1 11 6 SW 1016,5 10
16.06.2019 13:00:00 22,0 16,0 5 3 SSW - 10
16.06.2019 12:00:00 21,0 17,0 5 3 WSW - 10
16.06.2019 11:00:00 20,9 17,0 5 3 SW 1017,1 10
16.06.2019 10:00:00 21,0 17,0 5 3 SW - 10
16.06.2019 09:00:00 21,0 17,0 5 3 SW - 10
16.06.2019 08:00:00 20,5 16,9 5 3 SW 1016,3 10
16.06.2019 07:00:00 20,0 17,0 5 3 SW - 10
16.06.2019 06:00:00 20,0 17,0 4 2 S - 10
16.06.2019 05:00:00 20,1 16,8 4 2 S 1015,7 10
16.06.2019 04:00:00 20,0 17,0 8 4 SSE - 10
16.06.2019 03:00:00 20,0 17,0 5 3 S - 10
16.06.2019 02:00:00 20,1 17,0 5 3 SE 1016,3 10
16.06.2019 01:00:00 20,0 17,0 4 2 - - 10
16.06.2019 00:00:00 20,0 16,0 4 2 - - 10
15.06.2019 23:00:00 20,3 17,0 8 4 SW 1016,6 10
15.06.2019 22:00:00 20,0 18,0 9 5 SSW - 10
15.06.2019 21:00:00 21,0 18,0 9 5 SSE - 10
15.06.2019 20:00:00 20,9 18,1 8 4 S 1015,4 10
15.06.2019 19:00:00 21,0 18,0 5 3 S - 10
15.06.2019 18:00:00 22,0 18,0 8 4 SW - 10
15.06.2019 17:00:00 22,7 18,7 11 6 SW 1016,3 10
15.06.2019 16:00:00 23,0 19,0 9 5 S - 10
15.06.2019 15:00:00 23,0 19,0 8 4 S - 10
15.06.2019 14:00:00 22,7 18,8 5 3 S 1017,1 10
15.06.2019 13:00:00 22,0 19,0 8 4 S - 7
15.06.2019 12:00:00 22,0 19,0 8 4 SSE - 7
15.06.2019 11:00:00 21,5 19,2 8 4 SSE 1016,7 6
15.06.2019 10:00:00 21,0 20,0 9 5 SSE - 6
15.06.2019 09:00:00 21,0 20,0 5 3 S - 5
15.06.2019 08:00:00 20,6 19,9 4 2 - 1015,4 5
15.06.2019 07:00:00 20,0 20,0 5 3 SE - 4,8
15.06.2019 06:00:00 21,0 20,0 11 6 S - 4,0
15.06.2019 05:00:00 20,7 19,9 11 6 SSE 1014,6 10
15.06.2019 04:00:00 21,0 17,0 8 4 NNE - 10
15.06.2019 03:00:00 21,0 16,0 8 4 NNE - 10
15.06.2019 02:00:00 21,3 16,1 8 4 NNE 1014,1 10
15.06.2019 01:00:00 22,0 17,0 5 3 NNE - 10
15.06.2019 00:00:00 23,0 16,0 16 9 NE - 10
14.06.2019 23:00:00 23,4 17,1 16 9 E 1015,1 10
14.06.2019 22:00:00 24,0 17,0 11 6 ENE - 10
14.06.2019 21:00:00 25,0 16,0 15 8 W - 10
14.06.2019 20:00:00 25,1 15,0 31 17 NE 1012,5 10
14.06.2019 19:00:00 28,0 14,0 11 6 - - 10
14.06.2019 18:00:00 30,0 13,0 9 5 NNE - 10
14.06.2019 17:00:00 30,8 12,4 8 4 ENE 1014,5 10
14.06.2019 16:00:00 29,0 12,0 16 9 NE - 10
14.06.2019 15:00:00 30,0 11,0 18 10 NE - 10
14.06.2019 14:00:00 29,2 11,3 18 10 NE 1016,0 10
14.06.2019 13:00:00 29,0 10,0 18 10 NE - 10
14.06.2019 12:00:00 29,0 9,0 18 10 NE - 10
14.06.2019 11:00:00 28,4 8,1 15 8 NE 1016,0 10
14.06.2019 10:00:00 27,0 7,0 22 12 NE - 10
14.06.2019 09:00:00 25,0 7,0 22 12 NE - 10
14.06.2019 08:00:00 22,7 6,2 28 15 NE 1016,1 10
14.06.2019 07:00:00 23,0 6,0 15 8 NNE - 10
14.06.2019 06:00:00 23,0 6,0 13 7 NNE - 10
14.06.2019 05:00:00 22,1 5,9 11 6 NNE 1015,9 10
14.06.2019 04:00:00 23,0 5,0 18 10 NE - 10
14.06.2019 03:00:00 22,0 5,0 13 7 NE - 10
14.06.2019 02:00:00 20,6 7,3 9 5 NNE 1017,6 10
14.06.2019 01:00:00 21,0 6,0 5 3 NE - 10
14.06.2019 00:00:00 21,0 6,0 13 7 NNE - 10
13.06.2019 23:00:00 20,6 5,8 9 5 N 1017,7 10
13.06.2019 22:00:00 21,0 5,0 9 5 NNE - 10
13.06.2019 21:00:00 21,0 5,0 8 4 NW - 10
13.06.2019 20:00:00 21,2 9,6 9 5 WSW 1016,7 10
13.06.2019 19:00:00 21,0 9,0 5 3 SW - 10
13.06.2019 18:00:00 22,0 13,0 8 4 WSW - 10
13.06.2019 17:00:00 21,5 12,7 8 4 SW 1017,2 10
13.06.2019 16:00:00 22,0 13,0 8 4 SSW - 10
13.06.2019 15:00:00 22,0 14,0 8 4 S - 10
13.06.2019 14:00:00 21,0 14,0 8 4 S - 10
13.06.2019 13:00:00 20,0 15,0 13 7 SSE - 10
13.06.2019 12:00:00 20,0 15,0 13 7 S - 10
13.06.2019 11:00:00 21,1 14,1 9 5 SSE 1017,3 10
13.06.2019 10:00:00 20,0 15,0 8 4 SE - 10
13.06.2019 09:00:00 20,0 14,0 8 4 ESE - 10
13.06.2019 08:00:00 19,8 13,4 8 4 - 1015,9 10
13.06.2019 07:00:00 17,0 13,0 8 4 NNE - 10
13.06.2019 06:00:00 17,0 13,0 9 5 NNE - 10
13.06.2019 05:00:00 17,0 13,0 9 5 NE - 10
13.06.2019 04:00:00 18,0 14,0 9 5 E - 10
13.06.2019 03:00:00 19,0 14,0 9 5 SE - 10
13.06.2019 02:00:00 19,0 14,0 9 5 S - 10
13.06.2019 01:00:00 19,0 13,0 11 6 S - 10
13.06.2019 00:00:00 19,0 14,0 15 8 SE - 10
12.06.2019 23:00:00 19,0 14,0 18 10 SE - 10
12.06.2019 22:00:00 19,0 13,0 15 8 SE - 10
12.06.2019 21:00:00 20,0 13,0 13 7 S - 10
12.06.2019 20:00:00 20,0 15,0 13 7 S - 10
12.06.2019 19:00:00 20,0 15,0 11 6 S - 10
12.06.2019 18:00:00 21,0 16,0 13 7 S - 10
12.06.2019 17:00:00 21,0 13,0 15 8 S - 10
12.06.2019 16:00:00 21,0 12,0 13 7 SSE - 10
12.06.2019 15:00:00 21,0 15,0 13 7 SSW - 10
12.06.2019 14:00:00 21,0 15,0 16 9 S - 10
12.06.2019 13:00:00 23,0 16,0 11 6 S - 10
12.06.2019 12:00:00 22,0 16,0 13 7 S - 10
12.06.2019 11:00:00 22,0 17,0 11 6 SSE - 10
12.06.2019 10:00:00 23,0 18,0 9 5 S - 10
12.06.2019 09:00:00 21,0 18,0 8 4 S - 10
12.06.2019 08:00:00 20,0 18,0 9 5 S - 10
12.06.2019 07:00:00 20,0 17,0 5 3 NW - 10
12.06.2019 06:00:00 20,0 17,0 4 2 ESE - 10
12.06.2019 05:00:00 20,0 17,0 4 2 - - 10
12.06.2019 04:00:00 20,0 18,0 8 4 W - 10

tt = temperature
td = dewpoint
ff = wind speed
dd = wind direction
ppp = reduced air pressure
vv = visibility

Next stations